[[{"header":{"parameterUnit":"m.s-1","parameterCategory":1,"la1":30.2991,"la2":30.254,"lo1":-89.0895,"lo2":-89.0444,"dy":0.0017,"dx":0.0017,"nx":28,"ny":28,"refTime":"2024-12-18T09:00:00:Z","depth":0,"parameterNumber":2,"parameterNumberName":"U-component_of_WINDS"},"data":[0,0,0,0,0,0,0,0,0,0,0,0,0,0,0,0,0,0,0,0,0,0,0,0,0,0,0,0,0,0,0,0,0,0,0,0,0,0,0,0,0,0,0,0,0,0,0,0,0,0,0,0,0,0,0,0,0,0,0.9409,0.9409,0,0.9408,0.9408,0.9408,0.9384,0.9383,0.9382,0.9382,0.9383,0.9384,0.9385,0,0,0,0,0,0,0,0,0,0,0,0,0,0.939,0.9391,0.9409,0.9409,0.9409,0.9408,0.9408,0.9408,0.9384,0.9383,0.9382,0.9382,0.9383,0.9384,0.9385,0,0,0,0,0,0,0,0,0,0,0,0,0,0.9395,0.9391,0.9409,0.9397,0.9395,0.9408,0.9408,0.9408,0.9384,0.9383,0.9382,0.9381,0.9383,0.9384,0.9385,0.941,0,0,0.9388,0.9388,0,0,0,0,0,0,0,0,0.9395,0.9396,0.9398,0.9397,0.9396,0.9395,0.9402,0.9409,0.9384,0.9388,0.9382,0.9381,0.9388,0.9389,0.9391,0.941,0.941,0.9388,0.9388,0.9389,0.9389,0,0,0,0,0,0,0,0.9394,0.9395,0.9409,0.9398,0.9397,0.9391,0.9391,0.9403,0.9394,0.9388,0.9386,0.9386,0.9387,0.939,0.9391,0.941,0.9388,0.9389,0.9389,0.939,0.9448,0.9449,0,0,0,0,0,0,0.9395,0.9395,0.9409,0.9409,0.9393,0.9393,0.9392,0.9396,0.9394,0.9392,0.9387,0.9385,0.9389,0.9389,0.939,0.9418,0.9389,0.939,0.939,0.9447,0.9448,0.9449,0,0,0,0,0,0,0.9395,0.9397,0.9409,0.9401,0.9402,0.9394,0.9399,0.9397,0.9399,0.9393,0.9391,0.9391,0.9388,0.9389,0.9405,0.9418,0.939,0.9391,0.9446,0.9448,0.9449,0.9475,0,0,0,0,0,0,0.9395,0.9397,0.9406,0.9402,0.9403,0.9423,0.94,0.9398,0.9401,0.9398,0.9396,0.9395,0.9387,0.9403,0.9406,0.9419,0.9392,0.9445,0.9447,0.9448,0.9473,0.9477,0.9481,0,0,0,0,0,0.9394,0.9414,0.9407,0.9408,0.9414,0.9423,0.9424,0.9414,0.9402,0.9411,0.9407,0.9395,0.9416,0.9405,0.9407,0.9421,0.9444,0.9446,0.9448,0.9471,0.9476,0.9481,0,0,0,0,0,0,0.9421,0.9414,0.9405,0.9424,0.9425,0.9419,0.9431,0.942,0.9424,0.9422,0.941,0.941,0.9427,0.9426,0.9413,0.9445,0.9428,0.9431,0.9445,0.945,0.9453,0.9453,0.9392,0,0,0,0,0,0.9429,0.9437,0.943,0.9448,0.9448,0.9439,0.9443,0.9435,0.9435,0.9436,0.9432,0.9433,0.944,0.9445,0.9451,0.9473,0.9472,0.9483,0.9487,0.9491,0.9493,0.9503,0.9508,0.9457,0.9457,0.9457,0,0,0.9447,0.9443,0.9449,0.9453,0.9452,0.9461,0.944,0.945,0.9456,0.9437,0.9451,0.9449,0.9449,0.9468,0.9476,0.9467,0.9507,0.9494,0.9496,0.9497,0.9506,0.9511,0.9515,0.9458,0.9458,0.9458,0,0,0.9482,0.948,0.9494,0.9493,0.9492,0.9486,0.9489,0.9485,0.9483,0.9496,0.9482,0.949,0.9502,0.9502,0.9504,0.9538,0.9527,0.9541,0.9561,0.9571,0.9575,0.9579,0.959,0.9594,0.9543,0.9543,0.9543,0,0.9503,0.9514,0.9503,0.9513,0.9515,0.9498,0.9511,0.9512,0.9513,0.9515,0.9505,0.9519,0.9518,0.9536,0.9544,0.9546,0.955,0.954,0.9576,0.9579,0.9582,0.9593,0.9597,0.9545,0.9544,0.9544,0.9544,0,0.954,0.9549,0.956,0.956,0.9563,0.9576,0.9566,0.9571,0.9562,0.9557,0.9571,0.9569,0.9574,0.9578,0.957,0.9594,0.9589,0.9578,0.956,0.9589,0.9598,0.9602,0.9547,0.9546,0.9546,0.9545,0,0,0.9593,0.9585,0.959,0.9589,0.9586,0.9592,0.9603,0.9607,0.9611,0.9612,0.9621,0.9631,0.962,0.9623,0.9615,0.9624,0.965,0.9612,0.9612,0.9618,0.9674,0.9682,0.9687,0.9643,0.9643,0.9644,0.9674,0,0.9626,0.9643,0.9633,0.9652,0.9659,0.9642,0.9652,0.9651,0.9647,0.9652,0.9648,0.9654,0.964,0.9641,0.9649,0.9645,0.9661,0.9643,0.965,0.9651,0.965,0.9692,0.97,0.9729,0.9678,0.9678,0.9679,0,0.9666,0.9668,0.9688,0.9682,0.9685,0.9693,0.9695,0.9701,0.9699,0.9695,0.9697,0.9687,0.9698,0.9681,0.9695,0.9683,0.9686,0.9684,0.9685,0.9684,0.9666,0.9692,0.9738,0.9742,0.9685,0.9684,0.9684,0,0.9701,0.9708,0.9721,0.9721,0.9715,0.9721,0.9719,0.9717,0.972,0.9721,0.9723,0.9726,0.9728,0.9731,0.9722,0.9711,0.9737,0.972,0.9734,0.9734,0.974,0.9739,0.9785,0.9743,0.9743,0.9743,0.9743,0,0.9738,0.9751,0.9736,0.9743,0.9757,0.9745,0.9758,0.9755,0.9753,0.9759,0.9746,0.9752,0.9741,0.9746,0.9739,0.9751,0.9753,0.975,0.9747,0.975,0.975,0.9751,0.9749,0.9744,0.9744,0.9743,0.9743,0,0.9779,0.9769,0.9782,0.9775,0.9773,0.9783,0.9777,0.9784,0.9778,0.9787,0.9788,0.978,0.9785,0.9776,0.9782,0.9777,0.9793,0.9789,0.9793,0.9792,0.9805,0.9804,0.9853,0.9858,0.9813,0.9814,0.9814,0,0.9802,0.9811,0.9805,0.9808,0.9806,0.9812,0.9814,0.9802,0.9805,0.9803,0.981,0.9815,0.9817,0.9827,0.9821,0.9825,0.9819,0.9836,0.982,0.9822,0.9818,0.9817,0.9818,0.984,0.984,0.9841,0.9841,0,0.9845,0.984,0.9843,0.9844,0.9847,0.9848,0.9847,0.9851,0.9839,0.9842,0.9847,0.9849,0.9854,0.9858,0.986,0.9858,0.9847,0.9846,0.9849,0.9852,0.9853,0.9851,0.9801,0.9845,0.9845,0.9844,0.9844,0.9844,0.9877,0.9884,0.988,0.9884,0.9882,0.9882,0.9888,0.9882,0.9886,0.9888,0.9881,0.9887,0.9885,0.9886,0.9885,0.989,0.9883,0.9888,0.9889,0.989,0.9891,0.9853,0.9891,0.9891,0.9891,0.9891,0.989,0,0.9918,0.9915,0.9918,0.9918,0.992,0.991,0.9909,0.9912,0.9917,0.9916,0.9918,0.9923,0.9927,0.9921,0.9924,0.9929,0.9924,0.993,0.9929,0.9929,0.9899,0.9895,0.9934,0.9934,0.9934,0.9934,0.9934,0.9934,0.994,0.995,0.9944,0.9954,0.995,0.9955,0.9956,0.9955,0.9954,0.996,0.9963,0.9959,0.9955,0.9958,0.996,0.9959,0.996,0.9967,0.9964,0.9935,0.9931,0.9927,0.9923,0.9968,0.9968,0.9993,0.9993,0.9994]},{"header":{"parameterUnit":"m.s-1","parameterCategory":1,"la1":30.2991,"la2":30.254,"lo1":-89.0895,"lo2":-89.0444,"dy":0.0017,"dx":0.0017,"nx":28,"ny":28,"refTime":"2024-12-18T09:00:00:Z","depth":0,"parameterNumber":3,"parameterNumberName":"V-component_of_WINDS"},"data":[0,0,0,0,0,0,0,0,0,0,0,0,0,0,0,0,0,0,0,0,0,0,0,0,0,0,0,0,0,0,0,0,0,0,0,0,0,0,0,0,0,0,0,0,0,0,0,0,0,0,0,0,0,0,0,0,0,0,1.3073,1.3073,0,1.3008,1.3007,1.3006,1.2992,1.2993,1.2993,1.2994,1.2921,1.2918,1.2916,0,0,0,0,0,0,0,0,0,0,0,0,0,1.3181,1.3179,1.3073,1.3073,1.3072,1.3008,1.3007,1.3006,1.2992,1.2993,1.2993,1.2994,1.2922,1.2919,1.2916,0,0,0,0,0,0,0,0,0,0,0,0,0,1.3126,1.3178,1.3074,1.3057,1.3055,1.3008,1.3007,1.3006,1.2992,1.2993,1.2993,1.2994,1.2923,1.2919,1.2915,1.2879,0,0,1.2905,1.2903,0,0,0,0,0,0,0,0,1.3129,1.3122,1.306,1.3058,1.3056,1.3009,1.3018,1.2963,1.2992,1.3016,1.2994,1.2994,1.2949,1.2943,1.2929,1.2875,1.2872,1.2904,1.2902,1.29,1.2899,0,0,0,0,0,0,0,1.3133,1.3125,1.3047,1.3059,1.3057,1.3051,1.3044,1.3008,1.2979,1.3014,1.3012,1.3005,1.2948,1.2933,1.2928,1.2871,1.2904,1.2901,1.2899,1.2897,1.2783,1.2782,0,0,0,0,0,0,1.3141,1.3128,1.3049,1.3045,1.3095,1.3049,1.3041,1.3023,1.2979,1.2973,1.3005,1.3005,1.2939,1.2932,1.2925,1.2878,1.29,1.2897,1.2895,1.2784,1.2782,1.2781,0,0,0,0,0,0,1.3143,1.3134,1.3052,1.3087,1.3076,1.3046,1.3026,1.3022,1.3006,1.2973,1.2967,1.2995,1.2939,1.293,1.2891,1.2876,1.2896,1.2892,1.2785,1.2783,1.2782,1.2786,0,0,0,0,0,0,1.3146,1.3135,1.3122,1.3086,1.3074,1.302,1.3025,1.302,1.3001,1.3001,1.2962,1.2956,1.2939,1.2896,1.2887,1.2871,1.2889,1.2786,1.2784,1.2782,1.2787,1.2785,1.2783,0,0,0,0,0,1.315,1.3124,1.3121,1.3112,1.3057,1.302,1.3012,1.2995,1.3,1.2986,1.2964,1.2957,1.2879,1.2892,1.2882,1.2865,1.2787,1.2784,1.2782,1.2788,1.2785,1.2783,0,0,0,0,0,0,1.3156,1.3119,1.3115,1.3078,1.3052,1.3017,1.2999,1.2993,1.2963,1.2964,1.2941,1.2933,1.2895,1.2876,1.2891,1.2826,1.2833,1.2829,1.284,1.2837,1.2836,1.284,1.2886,0,0,0,0,0,1.3154,1.3128,1.3096,1.3066,1.3053,1.3029,1.3011,1.3,1.2972,1.296,1.2936,1.2907,1.2876,1.2856,1.2825,1.2784,1.2775,1.2767,1.2765,1.2764,1.276,1.2736,1.2732,1.2775,1.2775,1.2775,0,0,1.3147,1.3124,1.3108,1.3067,1.3045,1.3018,1.3019,1.299,1.2968,1.2955,1.2917,1.2898,1.2864,1.2824,1.2805,1.2807,1.2747,1.2761,1.2761,1.2757,1.2734,1.273,1.2726,1.2773,1.2774,1.2774,0,0,1.3121,1.3101,1.3074,1.3053,1.3022,1.3006,1.2999,1.2965,1.2953,1.2914,1.2904,1.2877,1.2824,1.2801,1.2782,1.2747,1.274,1.2738,1.2727,1.2704,1.2701,1.2698,1.2685,1.268,1.2735,1.2735,1.2735,0,1.3116,1.3076,1.306,1.3031,1.3012,1.3002,1.2973,1.2953,1.2912,1.2899,1.2902,1.2836,1.2812,1.2766,1.2758,1.2743,1.2734,1.2742,1.2703,1.27,1.2697,1.2684,1.2679,1.2734,1.2735,1.2735,1.2735,0,1.3071,1.3043,1.3024,1.2988,1.2967,1.2938,1.2916,1.2897,1.2888,1.287,1.2831,1.2803,1.2766,1.2754,1.2744,1.2706,1.2709,1.2708,1.2714,1.2693,1.268,1.2675,1.2734,1.2734,1.2734,1.2734,0,0,1.3046,1.3002,1.2995,1.2978,1.2944,1.2921,1.2891,1.2857,1.284,1.2813,1.2786,1.2742,1.2742,1.272,1.2707,1.2687,1.2661,1.2689,1.2687,1.2684,1.2616,1.2616,1.2611,1.2656,1.2655,1.2654,1.2619,0,1.3015,1.2963,1.2948,1.2904,1.2877,1.2867,1.2841,1.2816,1.2799,1.2772,1.2753,1.2722,1.2724,1.2711,1.2691,1.2668,1.2647,1.2671,1.2629,1.2628,1.2637,1.2604,1.2604,1.2572,1.2614,1.2613,1.2612,0,1.2971,1.2945,1.2899,1.2868,1.2856,1.2833,1.2801,1.2776,1.2747,1.2736,1.2713,1.2702,1.2668,1.2677,1.263,1.2647,1.2629,1.2615,1.2614,1.2608,1.2618,1.2597,1.2561,1.2556,1.2604,1.2605,1.2606,0,1.2957,1.291,1.2876,1.2862,1.2825,1.2809,1.2792,1.2764,1.2745,1.2716,1.2703,1.267,1.2652,1.2626,1.2605,1.2614,1.256,1.2567,1.2548,1.2549,1.2536,1.2537,1.2496,1.2527,1.2527,1.2527,1.2527,0,1.2923,1.2895,1.2869,1.2848,1.2816,1.2799,1.2767,1.2749,1.2724,1.2698,1.2687,1.2662,1.2638,1.261,1.2594,1.2556,1.2548,1.2537,1.2533,1.2538,1.2539,1.2525,1.2526,1.2525,1.2526,1.2526,1.2526,0,1.29,1.2882,1.2845,1.2814,1.2805,1.2782,1.2754,1.2733,1.2716,1.2684,1.2675,1.2648,1.2614,1.2592,1.2548,1.2537,1.2497,1.2494,1.2507,1.2505,1.2487,1.2489,1.2435,1.2426,1.2464,1.2463,1.2463,0,1.288,1.2858,1.2825,1.2808,1.2792,1.2764,1.2745,1.2727,1.2707,1.2672,1.2655,1.2621,1.2593,1.2539,1.2514,1.2481,1.2476,1.2459,1.247,1.2476,1.2474,1.2475,1.2473,1.2457,1.2457,1.2456,1.2456,0,1.2844,1.2837,1.2811,1.2781,1.2759,1.2735,1.271,1.2696,1.2673,1.2651,1.2618,1.2597,1.2553,1.2519,1.2483,1.2464,1.2455,1.2453,1.2447,1.2451,1.2459,1.2454,1.2501,1.2454,1.2454,1.2455,1.2455,1.2455,1.2821,1.2801,1.2775,1.2746,1.2726,1.2704,1.2682,1.2664,1.2636,1.2601,1.2591,1.2556,1.2527,1.2478,1.2459,1.243,1.2431,1.2422,1.242,1.2417,1.2417,1.2465,1.2423,1.2423,1.2423,1.2423,1.2423,0,1.2784,1.2767,1.2741,1.2708,1.2685,1.2682,1.2654,1.2635,1.2605,1.2579,1.2552,1.2514,1.2481,1.2454,1.2419,1.2401,1.2396,1.2393,1.2393,1.2389,1.2418,1.2426,1.2397,1.2397,1.2397,1.2397,1.2397,1.2397,1.2762,1.2729,1.2718,1.2674,1.2656,1.2624,1.2608,1.2587,1.2566,1.2524,1.2498,1.2481,1.2455,1.2419,1.2388,1.238,1.2368,1.2364,1.2356,1.2384,1.2387,1.2389,1.2397,1.2362,1.2362,1.2329,1.2329,1.2329]}]]